Wetbulb
76.03 75.73 74.12 70.47 62.50 60.93 56.28 57.22 60.73 58.67 59.44 63.33 63.61 61.12 60.08 61.42 58.41 53.92 68.27 71.36 72.84 73.78 75.45 76.15 77.36 77.15 77.18 77.76 77.52 77.37 77.22 77.12 77.20 77.04 76.88 76.66 76.36 76.28 76.25 76.36 76.49 76.36 75.94 75.31 75.56 75.20 75.22 75.48 75.62
75.37 72.69 73.04 69.53 59.37 54.54 56.22 60.19 58.09 60.44 62.52 64.63 63.66 62.49 61.18 59.60 64.55 66.17 67.69 71.20 73.44 74.62 75.22 75.48 77.43 77.31 76.91 76.99 77.48 77.17 77.10 77.28 77.49 76.86 76.69 76.17 75.90 75.92 75.95 76.36 76.58 76.21 76.03 75.70 75.73 75.45 75.78 75.67 75.48
72.44 74.29 70.69 63.24 59.56 54.90 56.63 60.43 60.45 62.55 63.88 63.13 61.94 64.05 62.27 61.42 65.42 66.15 69.15 72.97 74.20 74.78 75.68 76.13 77.15 77.05 77.36 77.27 77.62 77.20 77.09 77.11 77.40 76.75 76.08 75.62 75.56 75.51 75.73 76.34 76.14 75.61 75.77 76.52 75.95 75.92 75.95 75.70 75.95
72.38 72.91 68.85 60.45 57.63 60.20 60.05 62.20 63.37 61.79 63.55 64.39 63.49 60.68 64.33 67.16 66.95 69.10 72.03 73.40 73.81 74.63 75.54 76.95 77.05 76.88 77.27 77.35 77.38 77.32 77.33 77.11 77.29 76.95 76.98 76.36 76.39 76.58 76.30 76.23 76.17 76.15 76.13 76.31 76.68 76.35 76.03 75.92 76.20
74.54 71.00 61.27 59.37 59.08 61.52 62.26 63.36 63.09 61.76 62.74 62.90 62.92 60.06 61.86 67.27 69.82 70.78 72.25 73.44 72.86 74.19 75.60 76.40 77.83 77.32 77.20 77.57 77.41 77.11 76.87 76.95 77.08 77.30 76.68 76.76 76.58 76.53 76.15 76.16 76.29 76.30 76.04 76.42 76.21 75.59 75.76 75.67 75.85
71.23 66.12 59.02 56.94 59.12 62.60 64.05 64.51 63.34 62.62 63.32 62.37 61.71 61.56 62.71 68.58 69.78 71.28 72.57 72.77 74.10 74.03 75.27 75.34 77.22 77.32 77.16 77.23 77.36 77.09 76.87 76.62 76.46 76.93 76.95 76.69 76.52 76.63 76.16 75.96 76.19 76.52 76.66 76.34 76.41 76.24 75.86 75.86 75.49
68.82 63.28 58.67 59.62 59.57 61.00 63.62 67.08 64.07 63.14 62.33 61.84 64.24 60.15 64.18 67.63 70.54 71.67 72.60 73.18 73.95 74.27 74.49 75.12 75.84 77.12 77.42 77.31 77.22 76.79 76.54 76.30 76.24 76.27 76.11 76.28 76.16 76.01 75.17 75.59 75.94 75.90 75.90 76.31 76.36 75.83 75.50 75.28 74.73
71.69 64.24 59.59 60.71 59.43 59.87 65.41 65.52 65.21 64.03 62.45 66.96 65.64 60.23 60.92 67.74 70.74 71.36 72.23 72.68 74.58 74.41 74.86 75.86 76.50 76.69 76.84 76.93 77.29 76.72 76.59 76.40 75.78 76.00 76.22 75.59 75.81 75.89 73.33 73.12 75.66 75.53 75.88 75.76 76.09 75.86 75.52 74.76 74.48
73.01 61.84 58.88 59.30 60.32 62.29 65.51 63.05 66.63 68.07 64.06 65.75 66.65 64.30 66.59 69.42 70.45 70.23 70.59 71.80 72.88 74.05 75.02 75.55 76.10 77.24 77.10 76.87 76.59 77.00 76.78 76.54 76.27 75.87 75.59 76.26 77.12 75.90 75.03 74.08 74.40 75.59 75.20 75.63 75.84 75.89 75.82 75.47 74.73
65.55 62.06 60.06 63.43 64.51 64.30 64.34 64.93 65.38 63.70 64.68 64.48 63.49 66.24 68.06 68.84 68.98 68.25 68.32 69.57 71.03 71.57 73.65 74.86 75.68 75.65 76.23 75.62 77.34 77.65 77.05 76.27 77.59 77.54 77.31 77.98 76.51 76.00 74.32 74.31 73.14 73.24 75.08 75.48 75.77 75.38 75.68 74.78 75.87
63.16 61.12 63.17 63.48 65.20 67.12 64.52 64.75 66.83 63.94 62.45 64.82 62.65 64.50 66.68 67.63 68.06 67.72 68.82 70.47 71.37 72.46 72.99 73.92 75.39 76.14 75.89 76.28 76.95 77.26 77.12 77.18 77.59 77.18 76.95 76.29 75.77 75.78 75.59 74.98 75.05 76.19 75.50 76.22 76.03 74.48 75.00 74.32 75.02
62.16 63.99 64.93 65.24 67.09 66.15 63.81 66.35 64.39 65.19 65.98 68.42 65.99 66.38 66.48 66.68 67.61 68.22 69.21 70.85 71.87 72.91 73.59 73.98 74.80 75.51 76.04 76.39 76.63 77.26 76.95 76.42 76.28 76.12 75.98 75.94 76.96 75.20 72.99 74.52 74.40 75.33 75.71 75.42 75.61 76.28 75.96 75.20 73.68
62.78 63.16 65.20 65.89 66.27 66.59 66.63 65.26 64.83 65.20 66.44 67.57 66.03 65.99 66.11 67.01 68.02 69.44 70.49 71.64 72.68 72.58 73.64 74.35 74.89 75.28 75.43 75.65 75.78 75.64 75.58 75.39 75.07 75.41 75.90 77.16 76.63 76.12 73.85 74.91 72.93 73.63 74.54 73.96 74.13 73.95 73.62 71.97 72.90
64.32 64.33 64.68 65.50 65.88 66.54 64.81 64.86 65.86 65.68 65.50 64.57 64.81 65.02 66.47 67.05 68.18 69.52 70.31 70.97 71.87 72.98 73.18 74.54 74.77 75.11 75.34 75.46 76.05 75.34 75.22 74.61 74.63 74.72 75.95 76.68 76.28 76.53 74.79 73.36 71.69 73.01 73.54 74.05 72.00 71.17 71.75 70.67 70.45
63.87 61.59 63.68 64.02 65.06 64.77 66.47 62.39 63.46 66.76 65.50 63.67 64.00 65.14 66.17 67.36 68.67 69.18 70.77 71.17 71.73 72.44 73.56 73.89 74.61 75.11 75.21 75.43 75.98 75.47 75.20 74.46 74.96 74.69 75.97 76.01 76.21 76.23 75.17 73.81 71.57 71.17 71.71 71.66 71.85 71.13 70.76 70.30 72.44
61.33 61.11 58.87 62.31 63.49 65.20 63.17 58.71 64.69 66.96 65.44 63.19 63.65 64.60 65.60 67.15 68.57 70.20 71.37 71.94 72.79 72.23 72.32 73.81 73.90 74.26 74.75 75.20 75.51 75.08 75.17 75.08 75.81 76.04 75.95 75.65 75.99 74.33 73.62 73.43 73.23 72.32 73.02 72.77 71.59 72.66 71.58 71.28 69.41
59.02 56.71 56.74 57.84 63.86 63.29 62.64 60.08 64.51 67.26 65.56 64.69 64.59 65.36 66.04 67.04 68.49 70.23 71.58 72.17 72.77 73.36 73.09 72.81 73.81 73.80 74.21 74.84 74.97 75.01 75.41 75.12 75.44 75.99 75.60 75.31 75.38 75.47 75.59 73.11 74.37 75.68 72.82 73.88 73.54 73.61 73.44 72.89 73.22
55.81 53.68 55.51 55.97 60.89 62.20 60.58 60.48 63.46 66.35 65.68 65.17 65.99 66.85 67.35 67.67 68.66 70.51 71.94 72.59 73.03 73.26 73.50 73.31 73.14 73.78 74.52 74.39 74.27 74.37 74.55 74.78 75.39 75.49 75.88 74.74 74.75 75.26 75.53 75.17 74.70 74.27 74.13 74.17 74.45 73.78 73.67 73.80 73.87
55.67 54.31 53.52 56.70 61.56 61.10 60.73 60.98 62.75 65.84 65.83 65.17 65.80 66.67 67.57 68.40 70.83 71.77 72.28 72.90 72.93 73.13 72.92 72.92 72.88 73.58 73.87 73.42 73.04 73.75 72.53 74.49 74.11 75.10 74.96 74.09 75.19 75.84 76.03 75.19 74.20 74.25 74.55 75.05 74.93 75.43 74.40 73.79 74.72
54.56 53.47 53.59 56.98 61.22 61.23 60.32 60.10 62.30 65.21 65.47 66.14 66.00 65.97 67.35 68.45 69.72 70.93 72.00 72.62 72.83 72.83 72.90 73.24 73.60 73.95 73.90 74.00 73.30 74.68 74.30 74.65 73.63 74.12 74.03 74.17 74.04 74.38 75.28 75.03 74.54 74.94 74.94 75.84 75.33 75.07 73.95 74.13 74.48
54.01 53.47 53.32 53.44 59.81 61.39 59.98 57.92 60.17 63.37 65.96 66.72 67.40 67.78 67.95 68.18 68.78 70.04 71.06 71.85 72.64 72.51 73.19 73.18 73.76 74.08 74.30 75.11 73.96 73.98 75.20 74.17 72.55 73.24 73.67 74.63 74.81 74.45 76.19 75.78 75.87 75.58 75.85 74.77 75.50 75.06 74.10 72.24 74.33
52.63 54.95 54.20 53.41 54.41 49.64 58.43 49.16 58.11 60.93 62.12 64.15 65.87 66.95 67.63 68.35 69.44 69.72 70.28 71.21 71.73 72.29 73.38 74.08 74.26 74.21 74.41 75.26 74.57 74.50 73.85 74.31 72.20 73.11 75.13 73.93 75.19 76.69 76.60 74.45 73.95 74.02 73.77 73.77 73.55 74.05 74.10 72.10 70.25
53.17 55.00 53.04 53.12 54.12 54.51 54.75 52.42 55.54 58.58 59.10 61.49 64.25 66.16 67.45 68.59 68.99 69.33 69.87 70.82 71.66 72.03 72.08 73.37 74.06 74.26 74.75 74.90 75.45 74.11 73.90 72.94 72.84 73.07 72.71 71.68 71.75 72.43 73.72 73.38 72.68 71.56 71.21 70.81 70.98 71.61 72.51 73.25 71.74
53.51 51.67 51.43 55.26 55.12 48.80 52.89 53.01 53.14 57.70 60.44 61.03 63.47 65.16 66.73 68.03 68.99 69.70 70.93 71.35 71.29 71.50 71.51 72.40 73.37 74.02 74.48 74.83 74.64 74.53 74.32 73.61 72.14 72.48 72.09 71.08 70.35 70.56 71.25 71.02 70.28 70.03 69.51 69.75 70.38 71.18 70.22 71.50 71.32
50.30 48.70 47.34 46.51 48.15 47.48 52.36 53.08 54.49 59.39 61.36 61.30 61.57 63.95 65.68 67.66 68.47 69.11 69.72 70.12 70.62 70.29 71.33 71.87 72.86 73.18 74.24 74.23 73.97 74.19 74.23 74.15 73.85 73.09 72.30 71.25 69.84 69.70 69.94 69.44 68.77 68.05 68.80 69.29 69.51 68.90 68.41 68.32 67.86
49.05 48.79 47.22 44.06 44.67 47.95 52.66 50.89 54.35 61.36 61.85 62.22 62.71 64.13 65.15 66.09 68.07 69.00 69.94 70.62 70.46 70.64 71.52 71.99 72.61 72.97 73.66 73.73 73.87 74.01 73.34 71.64 72.88 73.16 72.49 71.65 70.25 69.31 68.51 67.54 67.22 67.20 67.32 67.85 67.93 67.14 66.53 67.03 65.90
49.10 47.44 49.74 46.83 46.14 46.44 49.85 54.16 57.69 60.39 60.79 62.28 63.05 64.21 64.76 65.16 67.10 68.57 69.76 70.71 70.91 71.03 71.75 72.42 73.02 73.66 73.95 73.56 73.83 73.02 72.88 73.06 72.74 73.42 72.42 70.05 69.46 67.51 67.23 66.84 66.02 65.95 66.50 66.67 67.20 66.00 65.66 65.61 64.49
50.27 51.53 46.48 48.26 43.24 42.29 46.65 48.38 50.90 56.86 59.08 59.64 62.24 63.58 65.55 66.58 66.95 68.24 69.98 70.71 70.78 71.33 72.08 72.64 73.39 73.84 74.42 74.07 73.60 73.29 73.53 72.04 72.19 70.16 69.66 69.15 67.93 66.94 65.48 64.63 64.59 65.10 65.57 65.65 65.95 65.40 65.40 63.57 61.63
48.05 47.50 47.14 47.38 47.06 44.17 43.53 46.87 56.55 59.08 59.85 58.67 59.29 64.22 65.67 66.32 66.85 68.05 69.37 70.86 70.84 71.14 71.44 71.58 72.76 73.64 73.77 74.06 74.09 73.27 71.52 69.51 69.29 68.66 68.51 67.71 66.74 65.20 63.41 63.24 63.76 64.44 64.59 65.16 64.97 63.94 62.59 60.36 58.79
48.66 48.82 48.85 44.95 44.99 45.85 45.96 46.40 54.61 56.65 57.67 59.37 61.13 62.96 65.99 66.98 67.90 68.85 69.80 70.57 70.01 70.02 70.94 71.65 72.29 72.71 73.32 73.45 72.59 71.11 69.84 68.46 66.86 66.98 66.82 66.50 64.62 61.95 60.80 62.23 63.38 63.62 64.00 64.49 63.90 62.59 61.73 58.18 57.15
MSLP
1008.30 1008.56 1008.87 1009.04 1009.18 1007.87 1008.31 1009.21 1009.35 1009.80 1010.09 1010.47 1010.97 1011.50 1011.99 1012.65 1012.87 1013.98 1014.57 1014.76 1014.75 1014.99 1014.91 1014.94 1015.01 1015.14 1015.24 1015.25 1015.44 1015.55 1015.69 1015.86 1016.04 1016.22 1016.21 1016.48 1016.73 1016.94 1017.02 1017.28 1017.42 1017.43 1017.45 1017.38 1017.50 1017.53 1017.53 1017.51 1017.62
1008.24 1008.66 1008.69 1008.03 1007.77 1007.40 1008.16 1008.95 1009.25 1009.55 1009.84 1010.37 1010.82 1011.30 1011.81 1012.90 1013.25 1013.89 1014.42 1014.66 1014.49 1014.71 1014.69 1014.84 1015.17 1015.33 1015.45 1015.52 1015.68 1015.87 1016.03 1016.16 1016.23 1016.36 1016.46 1016.75 1016.87 1017.02 1017.20 1017.37 1017.53 1017.58 1017.60 1017.61 1017.66 1017.69 1017.70 1017.80 1017.89
1008.31 1008.11 1007.82 1007.45 1007.40 1007.48 1008.15 1008.82 1009.05 1009.60 1009.92 1010.15 1010.78 1011.49 1012.17 1013.05 1013.54 1014.03 1014.14 1014.19 1014.37 1014.66 1014.77 1015.01 1015.34 1015.46 1015.57 1015.71 1015.79 1016.00 1016.19 1016.37 1016.37 1016.47 1016.71 1016.84 1016.95 1017.13 1017.30 1017.42 1017.56 1017.74 1017.84 1017.80 1017.83 1017.84 1017.94 1018.06 1018.13
1008.12 1008.04 1007.55 1007.19 1007.43 1008.21 1008.30 1008.77 1009.10 1009.54 1009.93 1010.20 1010.69 1011.66 1012.81 1013.28 1013.44 1013.81 1014.01 1014.03 1014.25 1014.54 1014.78 1015.18 1015.41 1015.48 1015.68 1015.86 1015.94 1016.14 1016.36 1016.49 1016.47 1016.64 1016.79 1016.90 1017.02 1017.20 1017.45 1017.56 1017.62 1017.87 1018.01 1017.84 1018.00 1018.06 1018.15 1018.25 1018.49
1007.82 1007.33 1006.82 1007.12 1007.57 1008.38 1008.58 1008.93 1009.10 1009.36 1009.77 1010.14 1010.65 1011.93 1012.93 1013.41 1013.55 1013.99 1014.21 1014.40 1014.44 1014.53 1014.88 1015.18 1015.55 1015.68 1015.90 1015.93 1016.12 1016.30 1016.48 1016.66 1016.71 1016.73 1016.89 1017.03 1017.14 1017.31 1017.61 1017.70 1017.88 1017.93 1018.06 1018.04 1018.05 1018.25 1018.32 1018.42 1018.59
1006.88 1006.79 1006.54 1006.79 1007.37 1008.10 1008.55 1008.90 1009.28 1009.43 1009.82 1010.38 1010.96 1011.66 1012.92 1013.59 1013.64 1013.96 1014.31 1014.45 1014.44 1014.76 1014.80 1015.13 1015.65 1015.88 1016.07 1016.12 1016.22 1016.37 1016.55 1016.78 1016.85 1016.87 1016.93 1016.99 1017.23 1017.44 1017.62 1017.83 1017.91 1017.92 1018.10 1018.17 1018.26 1018.41 1018.49 1018.57 1018.70
1006.54 1006.09 1006.51 1006.85 1007.18 1007.41 1008.03 1008.57 1008.92 1009.26 1009.65 1009.98 1010.72 1011.47 1012.84 1013.38 1013.56 1014.10 1014.44 1014.69 1014.76 1014.70 1014.90 1015.25 1015.43 1015.84 1016.10 1016.28 1016.40 1016.58 1016.69 1016.80 1016.80 1016.84 1016.95 1017.00 1017.12 1017.29 1017.53 1017.71 1017.97 1018.18 1018.31 1018.22 1018.39 1018.51 1018.72 1018.83 1018.90
1006.09 1005.87 1006.14 1006.52 1006.72 1007.12 1007.72 1008.11 1008.62 1008.87 1009.67 1010.04 1010.46 1010.93 1011.95 1012.79 1013.57 1014.09 1014.56 1014.76 1014.91 1014.86 1014.92 1015.20 1015.53 1015.68 1015.97 1016.17 1016.47 1016.67 1016.74 1016.85 1016.96 1016.95 1017.08 1017.21 1017.31 1017.48 1017.59 1017.59 1017.82 1018.08 1018.33 1018.36 1018.44 1018.67 1018.81 1018.99 1019.13
1005.84 1005.44 1005.51 1005.98 1006.37 1006.82 1007.50 1007.83 1008.50 1008.84 1009.23 1009.71 1010.26 1010.66 1011.22 1012.58 1013.40 1013.78 1014.28 1014.67 1014.89 1015.05 1015.05 1015.04 1015.40 1015.77 1015.95 1016.12 1016.32 1016.67 1016.78 1016.81 1017.02 1017.14 1017.26 1017.25 1017.42 1017.57 1017.64 1017.78 1017.96 1018.05 1018.26 1018.44 1018.46 1018.70 1018.96 1019.05 1019.12
1005.29 1004.96 1005.00 1005.26 1005.73 1006.37 1007.17 1007.67 1008.16 1008.73 1009.27 1009.78 1010.27 1010.99 1011.78 1012.70 1013.15 1013.40 1013.66 1014.01 1014.51 1014.78 1015.14 1015.28 1015.42 1015.64 1015.99 1016.05 1016.34 1016.49 1016.65 1016.70 1016.88 1017.13 1017.30 1017.39 1017.50 1017.61 1017.69 1017.86 1017.99 1018.14 1018.26 1018.41 1018.51 1018.76 1018.84 1019.01 1018.90
1004.72 1004.58 1004.84 1005.17 1005.37 1005.90 1006.79 1007.41 1007.86 1008.20 1008.71 1009.04 1009.54 1010.58 1011.65 1012.45 1012.97 1013.15 1013.41 1013.64 1013.91 1014.42 1014.87 1015.15 1015.54 1015.78 1015.97 1016.18 1016.45 1016.61 1016.81 1016.94 1017.15 1017.29 1017.35 1017.31 1017.40 1017.50 1017.51 1017.60 1017.78 1018.04 1018.23 1018.34 1018.54 1018.80 1018.80 1018.99 1019.25
1004.19 1004.46 1004.68 1005.20 1005.66 1005.96 1006.42 1006.98 1007.51 1007.92 1008.15 1008.42 1009.43 1010.02 1011.10 1011.83 1012.25 1012.54 1012.90 1013.36 1013.89 1014.18 1014.59 1015.00 1015.31 1015.70 1015.99 1016.33 1016.56 1016.75 1016.92 1016.99 1016.96 1017.03 1017.23 1017.27 1017.42 1017.48 1017.84 1017.56 1017.80 1018.01 1018.16 1018.31 1018.49 1018.67 1018.72 1018.77 1019.11
1003.95 1004.34 1004.89 1005.29 1005.74 1006.05 1006.53 1006.83 1007.21 1008.02 1008.65 1008.76 1009.77 1010.62 1011.08 1011.51 1011.93 1012.34 1012.71 1013.12 1013.54 1013.98 1014.24 1014.69 1015.10 1015.52 1015.72 1016.12 1016.41 1016.62 1016.74 1016.86 1016.91 1016.98 1017.01 1017.06 1017.12 1017.20 1017.46 1017.65 1017.94 1017.81 1017.91 1018.08 1018.33 1018.71 1018.75 1018.99 1018.63
1004.36 1004.43 1004.98 1005.40 1005.71 1006.21 1006.69 1007.10 1007.46 1008.42 1008.94 1009.32 1009.91 1010.60 1011.09 1011.37 1011.72 1012.18 1012.39 1012.69 1013.04 1013.25 1013.57 1014.14 1014.67 1015.13 1015.56 1016.04 1016.35 1016.47 1016.64 1016.70 1016.75 1016.71 1016.85 1016.98 1016.80 1016.82 1017.02 1017.54 1017.95 1018.05 1017.97 1017.98 1018.63 1018.88 1018.91 1018.97 1018.94
1004.36 1004.63 1005.10 1005.46 1005.79 1006.05 1006.62 1007.11 1007.07 1007.98 1008.70 1009.29 1009.98 1010.59 1011.02 1011.25 1011.63 1011.66 1012.01 1012.25 1012.57 1012.84 1013.22 1013.72 1014.25 1014.56 1015.20 1015.52 1015.90 1016.17 1016.36 1016.42 1016.45 1016.70 1016.83 1016.77 1016.82 1016.68 1016.77 1017.21 1017.85 1017.93 1018.10 1018.48 1018.71 1018.93 1018.93 1018.85 1018.36
1004.28 1004.67 1004.93 1005.36 1005.64 1006.13 1006.51 1006.06 1006.83 1008.03 1008.22 1008.74 1009.63 1010.22 1010.73 1010.95 1011.02 1011.40 1011.68 1012.05 1012.39 1012.75 1013.14 1013.63 1013.92 1014.32 1014.89 1015.28 1015.69 1015.97 1015.96 1016.13 1016.30 1016.54 1016.68 1016.74 1016.65 1016.86 1017.10 1017.24 1017.49 1017.73 1017.95 1018.15 1018.50 1018.62 1018.63 1018.59 1018.36
1004.48 1004.46 1004.80 1005.00 1005.31 1005.65 1006.26 1005.89 1006.84 1007.85 1008.20 1008.44 1008.89 1009.37 1009.87 1010.33 1010.64 1010.71 1011.12 1011.58 1011.96 1012.50 1013.01 1013.36 1013.76 1014.09 1014.66 1015.12 1015.35 1015.73 1015.91 1015.99 1016.06 1016.43 1016.60 1016.71 1016.71 1016.71 1016.77 1017.25 1017.25 1017.36 1017.77 1017.60 1017.88 1018.06 1018.19 1017.95 1017.70
1003.99 1004.25 1004.54 1004.63 1004.85 1005.27 1005.61 1005.37 1006.33 1007.40 1007.89 1008.13 1008.33 1008.56 1008.99 1009.16 1009.19 1009.78 1010.54 1011.05 1011.55 1012.01 1012.66 1013.11 1013.31 1013.78 1014.47 1014.91 1015.35 1015.63 1015.83 1015.88 1015.95 1016.24 1016.48 1016.67 1016.61 1016.66 1016.77 1016.81 1016.97 1017.25 1017.44 1017.49 1017.47 1017.68 1017.84 1017.73 1017.40
1003.77 1004.08 1004.20 1004.09 1004.48 1004.85 1004.65 1004.72 1005.35 1006.14 1007.19 1007.45 1007.59 1007.87 1007.99 1007.87 1007.94 1009.00 1009.75 1010.38 1010.93 1011.47 1012.09 1012.59 1013.18 1013.64 1014.11 1014.55 1014.96 1015.53 1015.69 1015.84 1016.08 1016.16 1016.51 1016.58 1016.37 1016.40 1016.50 1016.66 1016.96 1017.15 1017.20 1017.30 1017.38 1017.30 1017.23 1017.15 1017.30
1003.65 1003.71 1003.79 1003.91 1004.18 1004.58 1004.24 1004.05 1004.41 1005.31 1005.43 1006.06 1006.59 1006.87 1007.05 1007.15 1007.60 1008.22 1008.80 1009.47 1010.17 1010.78 1011.44 1012.16 1012.66 1013.36 1013.75 1014.06 1014.67 1014.99 1015.43 1015.65 1015.98 1015.94 1016.31 1016.25 1016.33 1016.58 1016.64 1016.61 1016.72 1016.91 1016.99 1017.08 1017.02 1017.07 1016.96 1016.85 1017.02
1003.32 1003.37 1003.48 1003.74 1004.13 1004.29 1004.01 1002.80 1003.48 1004.37 1005.00 1005.75 1005.93 1006.14 1006.35 1006.36 1006.71 1007.21 1007.94 1008.58 1009.38 1010.16 1010.79 1011.53 1012.17 1012.81 1013.35 1013.78 1014.50 1015.06 1015.32 1015.73 1015.78 1016.01 1016.23 1016.03 1016.06 1016.39 1016.44 1016.40 1016.47 1016.71 1016.82 1016.93 1016.98 1017.02 1017.02 1016.59 1016.79
1002.86 1003.23 1003.22 1003.41 1003.71 1003.63 1004.01 1002.74 1002.01 1003.15 1003.81 1004.38 1004.66 1005.04 1005.20 1005.56 1005.96 1006.51 1007.05 1007.72 1008.43 1009.23 1010.35 1010.95 1011.79 1012.49 1013.03 1013.45 1013.89 1014.43 1014.83 1015.20 1015.50 1015.89 1015.97 1016.24 1016.13 1016.02 1016.21 1016.45 1016.58 1016.67 1016.86 1017.07 1017.00 1017.11 1017.02 1017.25 1017.00
1002.91 1003.22 1003.31 1003.28 1003.39 1003.67 1003.53 1003.22 1001.34 1002.15 1002.02 1002.47 1003.05 1003.53 1003.95 1004.40 1005.04 1005.44 1006.17 1006.75 1007.67 1008.73 1009.63 1010.45 1011.38 1012.15 1012.66 1013.10 1013.43 1013.97 1014.55 1014.96 1015.35 1015.88 1016.14 1016.48 1016.61 1016.53 1016.23 1016.45 1016.63 1016.83 1016.89 1017.06 1017.13 1017.17 1017.11 1017.19 1017.12
1003.17 1003.36 1003.58 1003.69 1003.46 1002.96 1002.69 1002.47 1000.55 1000.62 1000.35 1000.92 1001.64 1002.39 1002.89 1003.38 1004.12 1004.78 1005.39 1006.52 1007.21 1008.25 1009.17 1010.07 1010.97 1011.59 1012.20 1012.87 1013.33 1013.68 1014.09 1014.66 1015.07 1015.47 1015.93 1016.50 1016.63 1016.53 1016.46 1016.72 1016.83 1016.88 1016.79 1017.01 1016.98 1017.23 1017.37 1017.30 1017.27
1003.11 1002.92 1002.82 1003.00 1002.90 1002.25 1002.74 1002.27 1000.33 999.39 999.49 1000.30 1000.70 1001.13 1001.75 1002.37 1003.25 1004.07 1004.82 1005.68 1006.67 1007.58 1008.49 1009.53 1010.46 1011.28 1011.73 1012.38 1013.15 1013.60 1014.05 1014.56 1014.87 1015.14 1015.44 1015.97 1016.19 1016.32 1016.70 1016.91 1017.01 1017.11 1017.35 1017.31 1017.22 1017.47 1017.61 1017.64 1017.56
1002.48 1002.58 1002.19 1001.86 1002.25 1002.10 1002.70 1001.36 999.88 999.26 999.38 999.88 1000.36 1000.75 1001.05 1001.73 1002.46 1003.29 1004.08 1005.01 1005.93 1006.81 1007.91 1008.90 1009.86 1010.73 1011.36 1011.87 1012.61 1013.40 1013.97 1014.34 1014.55 1014.91 1015.09 1015.57 1016.01 1016.50 1016.89 1017.08 1017.23 1017.33 1017.35 1017.45 1017.53 1017.51 1017.64 1017.87 1017.95
1002.72 1002.72 1002.68 1002.02 1003.01 1002.33 1001.38 1000.98 1000.00 998.96 998.70 999.10 999.62 1000.16 1000.71 1001.31 1001.84 1002.62 1003.60 1004.54 1005.51 1006.33 1007.22 1008.18 1009.31 1010.22 1011.03 1011.41 1012.25 1013.02 1013.79 1014.20 1014.35 1014.85 1015.22 1015.85 1016.42 1016.80 1016.98 1017.14 1017.41 1017.44 1017.53 1017.61 1017.65 1017.79 1018.04 1018.23 1018.37
1002.36 1002.46 1002.55 1002.38 1001.96 1001.51 1000.92 1000.48 999.24 998.65 998.40 998.72 999.31 999.69 1000.34 1001.10 1001.68 1002.39 1003.28 1004.21 1005.10 1006.00 1007.14 1008.12 1008.96 1009.50 1010.22 1010.94 1011.79 1012.49 1013.36 1014.10 1014.50 1014.90 1015.19 1015.82 1016.35 1016.85 1017.33 1017.67 1017.81 1017.78 1017.79 1017.83 1017.92 1018.09 1018.47 1018.61 1018.79
1002.60 1002.28 1002.55 1002.28 1001.95 1001.05 1000.44 999.36 998.81 998.30 998.25 998.42 998.76 999.58 1000.29 1000.97 1001.47 1002.08 1002.86 1003.91 1005.00 1005.85 1006.78 1007.59 1008.45 1009.25 1010.04 1010.69 1011.54 1012.36 1013.25 1014.07 1014.67 1015.13 1015.63 1016.22 1016.75 1017.28 1017.63 1017.89 1018.12 1018.05 1018.15 1018.33 1018.44 1018.72 1019.03 1019.12 1019.21
1002.07 1001.57 1001.64 1001.56 1001.71 1001.62 1000.65 999.06 998.31 998.42 998.45 998.80 998.80 999.53 999.96 1000.56 1001.18 1001.89 1002.66 1003.68 1004.73 1005.56 1006.34 1007.15 1008.14 1009.09 1009.99 1010.92 1012.00 1012.80 1013.59 1014.27 1014.85 1015.47 1016.07 1016.46 1017.01 1017.72 1017.90 1018.04 1018.34 1018.43 1018.46 1018.71 1018.90 1019.02 1019.31 1019.43 1019.46
Wind_Speed
15 11 5 4 2 3 5 5 4 12 11 4 13 5 5 4 3 7 7 7 12 10 10 11 12 13 13 14 13 13 14 13 12 11 11 10 10 10 9 9 8 6 4 2 5 4 4 4 4
11 10 3 1 2 6 6 7 13 10 9 12 12 7 4 5 4 11 11 10 12 11 10 11 11 12 13 13 12 12 12 11 11 10 10 9 9 9 7 8 8 6 5 5 6 6 6 6 7
12 3 2 2 3 8 5 5 11 9 15 8 5 6 3 4 5 9 4 16 14 11 10 11 11 12 11 11 13 13 11 9 11 11 9 8 7 6 5 6 6 5 6 8 7 7 6 6 7
4 2 1 5 9 10 5 8 13 16 9 3 9 8 5 2 12 3 16 16 14 13 11 13 13 12 11 12 11 10 10 9 10 9 9 8 6 6 6 7 8 7 6 7 8 7 7 6 7
2 1 4 5 10 8 11 11 15 15 7 8 3 6 5 7 4 12 14 12 13 12 11 12 11 12 11 10 11 10 9 7 8 10 8 8 8 6 5 7 8 8 7 7 8 7 6 6 6
1 1 4 7 6 8 7 12 15 5 7 8 6 9 7 3 12 15 13 11 11 11 10 11 11 11 10 10 11 10 9 7 7 7 9 10 8 6 5 5 6 8 8 8 7 8 6 6 5
4 2 3 4 4 3 6 11 7 9 8 4 11 7 6 10 15 13 12 11 10 10 10 8 10 10 11 10 9 9 9 8 7 6 5 6 7 7 5 2 5 6 6 8 8 7 6 5 4
3 1 4 2 3 4 7 5 11 11 4 10 7 6 12 15 17 14 12 11 9 9 10 9 7 9 8 9 9 9 7 6 5 5 6 4 5 8 5 1 3 4 7 6 8 7 7 5 3
2 1 2 4 5 4 8 6 4 4 13 5 4 6 15 21 17 15 12 10 9 8 9 9 10 8 7 7 8 8 8 6 5 4 4 4 2 4 5 3 4 4 5 7 7 7 6 5 3
3 1 2 5 7 8 8 8 8 7 9 4 8 12 20 20 18 17 16 13 13 12 11 9 8 8 8 6 7 6 4 4 2 2 1 2 4 3 1 1 2 3 5 6 7 5 5 4 2
2 3 3 3 5 15 11 6 4 10 9 8 15 22 23 19 17 17 15 14 15 13 10 11 9 8 7 5 5 3 3 2 2 4 3 3 3 3 2 1 2 1 3 3 3 1 2 2 3
2 6 3 5 7 10 11 8 4 3 2 4 17 25 23 22 19 19 17 15 13 13 12 11 10 8 7 5 4 3 2 3 3 4 4 4 3 3 1 2 2 2 2 3 3 2 2 3 2
4 4 6 9 7 8 9 6 5 1 4 12 19 21 21 19 18 16 14 13 13 13 12 12 11 10 8 8 5 4 4 4 4 4 4 3 4 3 4 3 2 3 3 3 2 1 3 3 5
5 10 11 8 9 8 6 4 3 4 11 16 20 20 18 18 18 15 15 15 15 14 14 13 13 11 9 7 7 5 4 4 4 5 4 5 5 3 4 2 2 2 3 2 2 1 2 3 3
4 9 8 3 5 4 7 4 7 14 14 16 17 15 15 16 16 17 15 14 15 13 13 13 13 12 12 11 8 7 5 4 4 4 6 6 6 5 4 5 3 3 3 1 2 1 2 4 6
3 1 1 5 4 8 2 5 6 15 16 17 17 14 14 16 17 14 14 13 12 11 12 12 10 11 11 9 6 5 6 4 3 3 3 5 5 3 4 4 3 4 4 4 2 4 5 5 4
1 3 3 2 8 6 8 6 5 14 13 15 16 15 14 13 15 15 15 14 13 13 11 12 11 11 10 9 6 6 6 5 3 2 3 4 4 3 1 2 3 3 3 5 4 4 5 5 4
4 3 2 6 5 11 10 17 4 15 14 15 15 15 15 16 19 16 14 13 12 12 12 12 10 11 9 5 4 3 4 4 4 3 3 3 2 4 3 3 3 3 3 4 4 4 4 4 4
3 2 5 8 5 8 15 14 9 18 16 16 16 16 17 18 17 14 14 14 13 13 13 12 11 11 9 6 6 3 3 4 2 4 5 5 4 4 4 3 3 3 3 2 3 2 3 3 2
4 2 3 6 1 8 5 14 9 18 22 21 18 18 18 18 15 14 15 15 15 15 14 13 12 12 10 7 3 3 4 4 2 3 5 6 4 3 3 3 2 3 3 5 4 4 2 2 2
5 5 3 5 1 6 8 9 5 9 16 18 19 17 17 18 17 16 16 16 14 15 15 14 14 13 11 10 7 3 4 2 1 2 3 5 5 5 6 4 3 3 2 3 1 1 3 3 1
14 10 6 4 4 5 2 8 10 6 12 19 21 22 21 19 18 15 14 16 16 15 12 13 13 12 11 13 10 9 5 4 2 3 4 4 5 5 3 4 2 4 3 2 3 3 3 2 2
4 5 5 4 3 4 5 5 9 1 7 18 22 24 23 21 19 18 17 17 14 13 13 13 13 12 12 12 11 9 6 4 4 4 7 5 5 5 8 6 6 5 3 3 3 3 3 1 2
5 4 3 2 2 7 2 7 11 4 8 2 8 21 24 23 20 19 16 11 13 13 14 13 14 14 12 12 12 12 10 7 7 7 6 5 4 4 5 5 5 5 4 3 3 4 4 2 2
4 7 7 7 7 8 2 6 10 15 13 10 10 9 20 23 21 19 18 15 15 17 16 14 15 14 14 14 13 12 9 8 8 8 6 7 5 4 5 5 4 5 5 4 4 5 5 5 4
11 13 9 14 10 9 4 7 6 12 13 7 6 8 12 18 19 20 20 17 16 17 17 16 16 14 14 14 13 11 9 6 7 8 7 6 5 5 6 6 5 5 4 4 4 4 4 5 6
7 8 4 6 1 4 3 5 12 13 16 7 7 7 9 14 19 20 18 16 15 17 18 18 16 14 14 14 12 12 10 9 7 8 8 6 7 7 7 6 5 5 5 5 5 5 5 5 5
5 8 6 2 7 10 5 4 6 5 9 5 5 9 10 13 16 15 15 16 15 15 14 15 16 16 15 14 13 12 10 8 8 9 10 9 8 8 7 6 5 5 5 5 5 5 6 6 5
6 5 2 2 3 7 9 5 9 11 11 10 6 8 10 13 15 16 15 14 13 14 15 16 16 16 15 14 13 13 11 11 10 9 10 9 9 7 7 6 5 6 6 5 6 7 6 7 6
8 14 13 9 10 3 5 8 7 11 10 8 10 4 10 12 14 15 15 15 15 16 16 17 16 15 14 12 11 11 11 11 11 10 10 10 9 6 6 7 7 7 7 6 6 6 6 6 6
Wind_Direction
152 149 147 175 212 80 70 74 111 131 141 97 139 152 126 44 55 114 145 152 143 141 147 132 118 115 117 116 117 113 111 114 123 124 121 134 139 146 153 155 152 152 168 189 181 151 124 123 125
148 148 192 182 51 62 62 103 133 137 135 133 105 113 65 70 71 124 135 160 150 144 142 137 122 122 122 120 124 120 122 125 119 120 128 137 143 147 160 154 151 157 149 132 132 129 125 117 117
157 222 272 77 47 41 79 119 143 128 143 143 112 59 66 76 106 142 137 152 148 146 147 135 130 132 130 134 121 127 129 129 126 122 129 141 141 138 155 154 150 149 147 140 132 136 124 118 112
164 199 179 47 49 42 88 128 139 137 139 116 123 81 93 316 146 166 152 152 152 151 154 143 148 140 137 131 125 121 119 126 122 134 136 143 142 145 141 135 141 143 150 144 124 122 129 127 111
234 224 66 69 62 88 103 122 144 144 141 145 143 116 89 129 131 142 147 156 151 150 154 151 148 143 141 135 132 125 123 133 148 136 139 148 143 142 134 142 147 145 143 142 127 126 125 124 123
259 258 66 68 74 100 121 126 146 164 151 142 111 118 134 137 145 150 153 156 155 154 153 151 149 150 147 143 138 136 137 145 144 140 154 144 145 139 136 151 145 150 142 140 144 133 133 121 121
311 67 71 88 100 104 131 157 178 158 148 152 137 113 119 158 150 154 157 154 156 158 155 161 164 161 159 157 150 151 151 154 151 150 143 137 158 132 107 163 152 160 162 153 142 130 131 130 123
293 323 119 94 144 96 130 132 144 143 135 124 167 160 163 168 157 156 158 157 160 163 164 168 170 162 170 162 165 166 162 157 156 164 151 133 158 125 173 341 180 178 169 170 149 146 150 145 120
219 127 109 158 178 134 146 135 116 119 144 160 137 145 137 150 157 159 158 167 172 179 178 175 170 171 167 172 168 176 174 172 179 189 170 170 142 138 179 203 240 199 191 181 181 169 169 158 159
233 38 97 169 159 158 162 155 137 146 159 127 108 118 136 154 164 170 174 174 183 185 187 183 188 178 179 184 181 182 188 190 185 189 166 145 156 168 141 251 219 215 213 199 195 200 205 205 265
153 25 136 99 152 149 158 156 151 155 192 191 163 148 152 164 173 180 184 186 185 187 189 192 189 192 197 190 188 189 183 203 206 218 206 196 167 174 185 205 177 209 234 210 213 234 221 182 194
172 49 70 121 136 147 161 148 156 180 342 187 167 156 158 171 179 185 187 189 192 193 193 187 196 193 200 201 203 212 193 202 222 231 233 217 184 192 165 215 188 208 198 236 225 207 241 255 255
82 72 66 117 145 149 149 179 161 150 69 127 149 160 170 176 183 190 194 194 192 200 198 196 192 197 198 200 198 205 213 217 246 249 247 245 225 195 197 195 228 230 203 224 231 255 243 281 276
96 100 120 115 139 151 183 164 188 121 129 136 156 172 177 186 190 194 198 199 201 199 197 193 193 193 197 208 214 208 216 226 236 244 250 249 263 238 204 174 201 209 250 253 132 289 288 281 277
118 100 110 132 143 153 147 183 229 146 151 151 169 179 187 194 199 209 208 209 205 207 201 199 196 189 195 201 204 205 213 228 265 260 248 254 253 252 210 192 177 220 199 217 178 193 278 286 260
77 62 157 176 162 158 17 282 154 164 161 163 176 187 200 206 212 215 215 220 216 217 208 203 198 194 196 205 208 216 213 225 259 254 246 239 254 254 203 192 203 218 201 209 200 221 233 248 251
47 295 239 263 210 165 206 298 140 175 185 173 181 192 202 212 221 222 220 216 216 217 214 208 206 206 195 193 202 222 227 230 226 221 224 224 237 175 164 190 199 202 182 202 205 220 239 255 259
213 302 264 278 213 217 203 247 166 184 196 196 193 196 201 208 218 217 219 217 213 213 212 211 202 200 186 169 181 193 199 217 212 201 215 200 171 156 160 185 171 196 199 196 192 205 211 257 283
188 197 301 297 207 226 238 256 209 185 201 209 204 207 208 216 218 209 211 215 210 208 205 204 195 181 172 157 163 172 191 188 202 197 200 201 177 183 181 190 211 240 251 250 212 209 243 254 264
205 235 295 292 251 222 286 264 234 194 203 206 208 210 213 222 214 211 211 207 211 206 202 200 200 184 186 169 134 144 174 194 187 174 194 200 194 213 229 223 218 239 253 236 233 247 270 242 208
220 246 235 290 170 254 297 278 195 204 215 212 222 222 222 221 223 214 208 207 205 207 197 194 194 188 183 172 147 104 140 105 228 149 183 197 179 193 222 213 204 236 267 286 282 256 242 292 169
264 210 246 258 252 316 309 302 298 180 204 212 215 218 221 220 224 221 215 206 204 209 194 190 190 184 185 174 165 171 180 174 217 129 144 98 117 127 140 87 103 97 95 74 37 3 14 358 321
270 169 249 258 241 248 190 252 277 242 254 224 216 215 219 215 218 217 214 209 204 196 187 185 180 183 184 181 177 182 184 184 149 125 109 98 91 105 95 101 103 94 88 68 42 15 1 325 277
126 173 84 78 201 256 41 237 282 280 244 345 210 218 217 215 213 220 218 199 196 184 178 176 178 183 183 185 182 188 185 181 165 152 146 145 134 112 101 110 108 100 90 73 67 70 61 29 35
199 215 238 227 220 259 70 206 255 287 271 278 281 221 213 212 208 209 208 193 187 183 180 177 178 186 183 184 191 192 185 193 194 178 163 165 154 143 127 109 88 79 71 79 84 84 78 67 71
215 230 231 244 234 244 141 215 245 266 286 271 255 250 218 209 208 205 204 196 189 183 180 178 182 184 186 185 188 183 184 202 198 191 169 171 154 135 133 115 100 100 100 100 110 113 100 92 83
157 210 296 232 60 259 223 244 276 267 273 261 246 220 198 199 202 204 198 196 189 185 183 180 177 179 186 181 179 178 182 192 181 162 153 143 136 132 125 122 115 113 116 115 115 103 100 89 77
255 137 190 221 234 245 218 247 248 252 267 286 264 215 194 192 195 196 193 189 189 187 178 174 177 177 177 177 179 178 181 170 158 150 141 145 134 126 127 121 121 111 104 105 110 114 100 94 71
199 208 89 236 250 259 259 241 224 241 254 276 271 241 201 188 191 189 189 187 183 178 174 173 174 168 170 173 172 165 158 148 146 141 138 135 128 131 123 120 117 108 102 106 108 101 101 89 80
283 240 232 237 218 251 282 247 286 249 280 280 279 251 211 197 188 185 179 172 173 176 176 173 165 163 165 158 158 151 142 142 139 136 131 134 125 123 124 130 118 113 110 112 122 113 102 89 80